COSMOS 2594

Last updated on Sun Sep 14 2025 00:02:06 GMT+0000 (Coordinated Universal Time)

1 65270U 25182D 25254.34081583 .00034009 00000+0 16842-3 0 9997 2 65270 96.5870 187.5172 0015858 160.2879 199.9008 15.81770234 3320
UTC large
Height (km)
Speed (km/s)
/
Latitude / Longitude
Inclination (degrees)
Orbital Period (minutes)
Azimuth
Elevation
Range (km)
Doppler Factor

Next 0 passes for location: London (51.5072 / 0.1276)

Sorry there are no passes over London.